Hourly Weather Roundup
Issued by NWS Central Illinois

Home | Current Version | Previous Version | Text Only | Print | Product List | Glossary On
Versions: 1 2 3 4 5 6 7 8 9 10 11 12 13 14 15 16 17 18 19 20 21 22 23 24 25 26 27 28 29 30 31 32 33 34 35 36 37 38 39 40 41 42 43 44 45 46 47 48 49 50
000
NZUS43 KILX 011110
HWRILX

AREA WEATHER ROUNDUP
NATIONAL WEATHER SERVICE, LINCOLN IL
600 AM CDT WED OCT 01 2014


CITY           SKY/WX    TMP DP  RH WIND       PRES   REMARKS
BLOOMINGTON    CLEAR     51  48  89 SE9         N/A
CHAMPAIGN      NOT AVBL
DECATUR        CLEAR     50  48  93 E5        29.96S
FLORA          CLEAR     54  53  95 NE5       29.95R
GALESBURG      PTCLDY    50  47  88 E7        29.92F
JACKSONVILLE   CLEAR     53  51  92 E6        29.93S FOG
LACON          PTCLDY    48  45  88 CALM      29.96F
LAWRENCEVILLE  CLEAR     54  53  97 NE5       29.97R
LITCHFIELD     CLEAR     55  51  87 SE7       29.93S
$$


CITY           SKY/WX    TMP DP  RH WIND       PRES   REMARKS
LINCOLN        MOCLDY    53  49  86 E3        29.94S
MACOMB         PTCLDY    50  48  93 SE7       29.94S
MATTOON        PTCLDY    52  49  89 SE6       29.95S
MT CARMEL AP   CLEAR     55  54  94 NE5       29.96R
OLNEY-NOBLE AP CLEAR     52  52 100 CALM      29.96R
PARIS          CLEAR     49  49  99 CALM      29.99S
PEORIA         PTCLDY    53  46  77 E7        29.95F
PONTIAC        CLEAR     48  46  93 CALM      29.98S
RANTOUL        CLEAR     50  46  87 E6        29.98F
ROBINSON       CLEAR     54  52  95 E3        29.97S
SPRINGFIELD    CLEAR     53  49  86 E6        29.94S
TAYLORVILLE    CLEAR     52  48  87 E6        29.94S
$$

...REGIONAL REPORTS...


CITY           SKY/WX    TMP DP  RH WIND       PRES   REMARKS
CHICAGO O`HARE PTCLDY    49  44  83 S6        30.00S
KANKAKEE       CLEAR     45  44  97 E6        30.01R
MOLINE         NOT AVBL
MOUNT VERNON   NOT AVBL
PITTSFIELD     CLEAR     55  52  90 E3        29.92S
QUINCY         CLEAR     55  51  86 SE13      29.88S
ROCKFORD       PTCLDY    49  46  90 SE5       30.01S
$$


CITY           SKY/WX    TMP DP  RH WIND       PRES   REMARKS
BURLINGTON     PTCLDY    53  49  86 SE7       29.90S
CEDAR RAPIDS   CLOUDY    52  48  87 SE10      29.89R
DES MOINES     HVY RAIN  60  57  89 E10       29.80F FOG
KIRKSVILLE     CLOUDY    60  32  34 SE9       29.84S HAZE
OTTUMWA        MOCLDY    54  50  86 SE10      29.85S
ST LOUIS       CLEAR     63  59  87 E7        29.91S
$$


CITY           SKY/WX    TMP DP  RH WIND       PRES   REMARKS
TERRE HAUTE    CLEAR     50  47  89 E3        29.98R
EVANSVILLE     CLEAR     59  57  93 NE5       29.95R
INDIANAPOLIS   CLEAR     50  45  83 E7        29.99S
LAFAYETTE      CLEAR     43  43 100 E5        30.00S
MADISON        CLOUDY    50  46  86 E5        29.99S
MILWAUKEE      CLOUDY    55  48  77 S8        30.00S
$$




USA.gov is the U.S. government's official web portal to all federal, state and local government web resources and services.